Location: Herm
(49.4830°N, 2.4500°W)
Time: 17:24:01
(UTC+00:00)

NOAA 15 - Pass Details

Date: 28 October 2021
Orbit: 797 x 813 km, 98.7° (Epoch: 04 December)

Event Time Altitude Azimuth Distance (km) Brightness Sun altitude
Rises 19:03:13 0° 141° (SE) 3,322 7.5 -11.7°
Reaches altitude 10° 19:05:39 10° 134° (SE) 2,396 6.7 -12.1°
Maximum altitude 19:10:35 41° 65° (ENE) 1,166 5.0 -12.9°
Drops below altitude 10° 19:15:33 10° 357° (N) 2,414 7.1 -13.7°
Sets 19:18:01 0° 351° (N) 3,350 7.9 -14.1°
